BSAT-3B

Last updated on May 21, 2019, 3:10 a.m. UTC

1 37207U 10056B   19140.43774446 -.00000360  00000-0  00000+0 0  9994
2 37207   0.0543 318.3924 0002342  50.3942 136.4775  1.00273122 31350
UTC
Height (km)
Latitude
Longitude
Inclination
Orbital Period
UTC large
Height (km)
Speed (km/s)
/
Latitude / Longitude
Inclination (degrees)
Orbital Period (minutes)
Azimuth
Elevation
Range (km)
Doppler Factor
iOS Compass Heading
iOS Angle

Next 30 passes for location: Hong Kong

Rise time Rise Azimuth (degrees) Set time Set Azimuth (degrees) Duration Max altitude (degrees)

No matching passes for this satellites